Regional Weather Roundup
Issued by NWS Bismarck, ND

Home | Current Version | Previous Version | Text Only | Print | Product List | Glossary On
Versions: 1 2 3 4 5 6 7 8 9 10 11 12 13 14 15 16 17 18 19 20 21 22 23 24 25 26 27 28 29 30 31 32 33 34 35 36 37 38 39 40 41 42 43 44 45 46 47 48 49 50
000
ASUS43 KBIS 010910
RWRBIS

NWR BROADCAST TEXT
NATIONAL WEATHER SERVICE BISMARCK ND
300 AM CST SUN FEB 01 2015

NOTE: "FAIR" INDICATES FEW OR NO CLOUDS BELOW 12,000 FEET WITH NO
SIGNIFICANT WEATHER AND/OR OBSTRUCTIONS TO VISIBILITY.


CITY           SKY/WX    TMP DP  RH WIND       PRES   REMARKS
WILLISTON      MOCLDY    -4 -12  68 NE5       30.50S WCI -15
MINOT          MOCLDY    -9 -18  64 N12       30.51S WCI -28
MINOT AFB      PTCLDY    -9 -17  68 N8        30.52S WCI -25
BISMARCK       LGT SNOW  -5 -11  75 N12       30.47R WCI -23
DICKINSON      LGT SNOW  -3  -9  75 N8        30.36R WCI -18
GARRISON         N/A     -7 -15  68 N7        30.47R WCI -21
HETTINGER ARPT LGT SNOW  -3  -8  79 N15       30.34R WCI -23
JAMESTOWN      CLOUDY    -6 -14  68 N20       30.44R WCI -30
BEACH          FLURRIES  -2  -4  92 N5        30.39R WCI -12
CARRINGTON     FAIR      -8 -15  71 MISG      30.48R
CROSBY         FAIR      -8 -13  77 CALM      30.51S
HARVEY         FAIR      -9 -17  70 N13       30.50R WCI -30
HAZEN          CLOUDY    -4 N/A N/A N12       30.49R WCI -22
LINTON         LGT SNOW  -4  -9  77 N14G22    30.40S WCI -24
MANDAN         LGT SNOW  -4  -9  77 N12       30.44R WCI -22
OAKES            N/A     -2  -9  71 N21G28    30.39R WCI -25
RUGBY          FAIR     -11 -18  70 N5        30.53S WCI -23
TIOGA          FAIR      -8 -13  77 N3        30.48S
WATFORD CITY   FAIR      -4 -11  71 N7        30.46S WCI -18
$$

CITY           SKY/WX    TMP DP  RH WIND       PRES   REMARKS
GRAND FORKS    PTCLDY   -10 -18  67 N15       30.57R WCI -32
GRAND FORKS AF PTCLDY   -10 -19  64 NE14      30.57R WCI -32
DEVILS LAKE    MOCLDY   -11 -22  58 NE12      30.50R WCI -31
FARGO          CLOUDY    -3 -12  65 N21       30.46R WCI -26
CANDO          CLOUDY   -13 -20  70 N12       30.54R WCI -33
CAVALIER       FAIR     -11 -18  70 N8        30.62R WCI -28
GWINNER        CLOUDY     0  -9  65 N24       30.39S WCI -24
ROLLA          CLOUDY   -13 -22  64 N12       30.50S WCI -33
WALHALLA         N/A    -11 -18  70 NW10      30.62S WCI -30
$$

CITY           SKY/WX    TMP DP  RH WIND       PRES   REMARKS
ABERDEEN       LGT SNOW   1  -7  68 N23G30    30.35R WCI -22
MOBRIDGE       LGT SNOW   0  -7  72 N17       30.34R WCI -21
BUFFALO          N/A     -1  -6  79 NW5       30.23R WCI -11
RAPID CITY     CLOUDY     6   2  83 N14       30.23R WCI -11
GLASGOW        LGT SNOW   0  -5  79 NE5       30.47S WCI -10
SIDNEY         PTCLDY    -2  -9  71 N7        30.51S WCI -16
WOLF POINT     CLOUDY     2  -6  69 CALM      30.52R
GLENDIVE       PTCLDY     0  -8  71 N6        30.43R WCI -12
MILES CITY     CLOUDY     2  -3  80 NW5       30.41R WCI  -8
BAKER          LGT SNOW   0  -4  83 N5        30.35R FOG     WCI -10
$$

CITY           SKY/WX    TMP DP  RH WIND       PRES   REMARKS
BILLINGS       LGT SNOW   9   6  88 NE6       30.33R FOG     WCI  -1
GREAT FALLS    CLOUDY    -2  -3  96 SE5       30.33F WCI -12
REGINA         PTCLDY    -9 -13  84 NW2       30.50F
ESTEVAN        PTCLDY    -9 -15  77 E3        30.50F
$$




USA.gov is the U.S. government's official web portal to all federal, state and local government web resources and services.